Regional Weather Roundup
Issued by NWS

Home | Current Version | Previous Version | Graphics & Text | Print | Product List | Glossary On
Versions: 1 2 3 4 5 6 7 8 9 10 11 12 13 14 15 16 17 18 19 20 21 22 23 24 25 26 27 28 29 30 31 32 33 34 35 36 37 38 39 40 41 42 43 44 45 46 47 48 49 50
302
ASUS44 KLIX 022110
RWRLA
LOUISIANA WEATHER ROUNDUP
NATIONAL WEATHER SERVICE NEW ORLEANS LA
300 PM CST MON MAR 02 2015

NOTE: "FAIR" INDICATES FEW OR NO CLOUDS BELOW 12,000 FEET WITH NO
      SIGNIFICANT WEATHER AND/OR OBSTRUCTIONS TO VISIBILITY.
      SKY/WX - SKY CONDITION AND SIGNIFICANT WEATHER.
      TMP - AIR TEMPERATURE.    DP   - DEWPOINT TEMPERATURE.
      RH  - RELATIVE HUMIDITY.  PRES - PRESSURE.
      HX  - HEAT INDEX.         WCI  - WIND CHILL INDEX.

*  THESE STATIONS ARE NOT NWS OR FAA STATIONS AND ARE NOT UNDER
   NWS QUALITY CONTROL.

LAZ040-048-061>063-065-066-069-022200-
SOUTHEAST LOUISIANA

CITY           SKY/WX    TMP DP  RH WIND       PRES   REMARKS
N.O. AUDUBON     N/A     74  73  98 MISG        N/A
N.O. INTL ARPT PTSUNNY   73  66  78 E8        30.19F
N.O. LAKEFRONT CLOUDY    67  61  81 NE10      30.20F
SLIDELL        CLOUDY    72  68  87 E5        30.20F
BATON ROUGE    FOG       65  64  97 N3        30.20F VSB 1/2
BOOTHVILLE     SUNNY     77  69  76 S8        30.21F
BELLE CHASSE   PTSUNNY   78  68  71 SW9       30.18F
BOGALUSA*      LGT RAIN  65  63  90 NE3       30.23F
GALLIANO*      PTCLDY    81  69  67 S12       30.20S
NEW ROADS*     RAIN      52  51  98 N3        30.22F
GONZALES*      MOCLDY    78  70  77 SW7       30.17F
HAMMOND*       NOT AVBL
HOUMA*         PTSUNNY   75  72  88 S8        30.19
PORT FOURCHON* CLEAR     77  70  78 S9        30.22F

$$

LAZ041-044-053-054-022200-
SOUTHWEST LOUISIANA

CITY           SKY/WX    TMP DP  RH WIND       PRES   REMARKS
LAKE CHARLES   CLOUDY    58  56  93 NE8       30.20F
LAFAYETTE      CLOUDY    58  56  93 N8        30.21F FOG
PATTERSON      PTSUNNY   79  68  69 SW12      30.17F
SALT POINT       N/A     73  69  87 CALM      30.17F
NEW IBERIA     CLOUDY    62  61  96 N8        30.21F FOG
CHENAULT AIRPK NOT AVBL

$$

LAZ027-028-022200-
CENTRAL LOUISIANA

CITY           SKY/WX    TMP DP  RH WIND       PRES   REMARKS
FORT POLK      CLOUDY    51  50  95 NE7       30.23F
ALEXANDRIA INT CLOUDY    49  47  93 N5        30.24F
ALEXANDRIA     CLOUDY    48  46  93 VRB6      30.25F

$$

LAZ001-002-022200-
NORTHWEST LOUISIANA

CITY           SKY/WX    TMP DP  RH WIND       PRES   REMARKS
SHREVEPORT     DRIZZLE   43  41  93 NE7       30.27F FOG
BARKSDALE AFB  CLOUDY    42  42  99 NE7       30.27F
DTN SHREVEPORT CLOUDY    42  39  89 E7        30.28F

$$

LAZ014-016-022200-
NORTHEAST LOUISIANA

CITY           SKY/WX    TMP DP  RH WIND       PRES   REMARKS
MONROE         CLOUDY    42  40  92 N10       30.31S
TALLULAH       LGT RAIN  45  43  93 N6        30.28S FOG

$$




USA.gov is the U.S. government's official web portal to all federal, state and local government web resources and services.